This is the latest recevied weather packets stored in our database for station/object WA1TYB-13. If no packets are shown the sender has not sent any weather packets the latest 1 day(s).
| Time | Temp. | Humidity | Pressure | Rain* | Wind** | Luminosity | Snow |
|---|---|---|---|---|---|---|---|
| 1778025674 | 8.33° C | 37% | 1019.7 hPa | 0 mm | 2.68 m/s, 351° | 186 W/m² | - |
| 1778025372 | 8.33° C | 39% | 1019.5 hPa | 0 mm | 2.68 m/s, 345° | 339 W/m² | - |
| 1778025068 | 8.89° C | 37% | 1019.8 hPa | 0 mm | 3.58 m/s, 346° | 227 W/m² | - |
| 1778024765 | 7.78° C | 38% | 1019.7 hPa | 0 mm | 3.58 m/s, 339° | 330 W/m² | - |
| 1778024462 | 8.33° C | 38% | 1019.6 hPa | 0 mm | 2.24 m/s, 18° | 131 W/m² | - |
| 1778024160 | 7.78° C | 40% | 1019.6 hPa | 0 mm | 1.79 m/s, 8° | 139 W/m² | - |
| 1778023857 | 8.33° C | 38% | 1019.5 hPa | 0 mm | 2.24 m/s, 350° | 115 W/m² | - |
| 1778023555 | 8.33° C | 37% | 1019.6 hPa | 0 mm | 1.34 m/s, 5° | 128 W/m² | - |
| 1778023252 | 8.33° C | 40% | 1019.5 hPa | 0 mm | 2.68 m/s, 26° | 152 W/m² | - |
| 1778022948 | 8.33° C | 37% | 1019.8 hPa | 0 mm | 2.24 m/s, 72° | 163 W/m² | - |
| 1778022648 | 8.33° C | 39% | 1019.5 hPa | 0 mm | 1.79 m/s, 63° | 158 W/m² | - |
| 1778022344 | 7.78° C | 39% | 1019.8 hPa | 0 mm | 1.79 m/s, 27° | 133 W/m² | - |
| 1778022041 | 8.33° C | 40% | 1019.8 hPa | 0 mm | 3.58 m/s, 74° | 106 W/m² | - |
| 1778021738 | 8.33° C | 37% | 1019.4 hPa | 0 mm | 4.02 m/s, 22° | 96 W/m² | - |
| 1778021434 | 8.33° C | 41% | 1019.6 hPa | 0 mm | 3.13 m/s, 351° | 111 W/m² | - |
| 1778021131 | 8.33° C | 42% | 1019.5 hPa | 0 mm | 3.58 m/s, 313° | 116 W/m² | - |
| 1778020828 | 8.33° C | 42% | 1019.6 hPa | 0 mm | 3.13 m/s, 17° | 255 W/m² | - |
| 1778020525 | 8.89° C | 40% | 1019.5 hPa | 0 mm | 3.13 m/s, 6° | 223 W/m² | - |
| 1778020221 | 9.44° C | 41% | 1019.7 hPa | 0 mm | 4.47 m/s, 351° | 283 W/m² | - |
| 1778019918 | 8.33° C | 44% | 1019.5 hPa | 0 mm | 3.13 m/s, 42° | 294 W/m² | - |
| 1778019614 | 8.33° C | 44% | 1019.4 hPa | 0 mm | 4.02 m/s, 2° | 266 W/m² | - |
| 1778019311 | 8.89° C | 46% | 1019.3 hPa | 0 mm | 4.92 m/s, 2° | 265 W/m² | - |
| 1778019008 | 8.89° C | 43% | 1019.3 hPa | 0 mm | 5.81 m/s, 10° | 429 W/m² | - |
| 1778018705 | 8.89° C | 43% | 1019.7 hPa | 0 mm | 4.92 m/s, 357° | 412 W/m² | - |
| 1778018402 | 8.33° C | 45% | 1019.1 hPa | 0 mm | 5.36 m/s, 41° | 315 W/m² | - |
* Rain latest hour (hover to see other rain measurements)
** Current wind speed in m/s (hover to see current wind gust speed)